Time,TemperatureF,DewpointF,PressureIn,WindDirection,WindDirectionDegrees,WindSpeedMPH,WindSpeedGustMPH,Humidity,HourlyPrecipIn,Conditions,Clouds,dailyrainin,SoftwareType,DateUTC
2013-01-27 00:07:00,35.3,29.0,29.79,West,259,0.0,4.0,77,0.00,,,0.00,weatherlink.com 1.10,2013-01-27 07:07:00,
2013-01-27 00:22:00,35.9,29.0,29.78,SW,226,0.0,5.0,76,0.00,,,0.00,weatherlink.com 1.10,2013-01-27 07:22:00,
2013-01-27 00:37:00,35.8,28.0,29.79,SSW,194,0.0,7.0,72,0.00,,,0.00,weatherlink.com 1.10,2013-01-27 07:37:00,
2013-01-27 00:52:00,35.6,27.0,29.79,South,172,1.0,5.0,72,0.00,,,0.00,weatherlink.com 1.10,2013-01-27 07:52:00,
2013-01-27 01:07:00,35.2,27.0,29.79,SSE,167,0.0,4.0,72,0.00,,,0.00,weatherlink.com 1.10,2013-01-27 08:07:00,
2013-01-27 01:23:00,35.1,26.0,29.79,South,171,0.0,3.0,70,0.00,,,0.00,weatherlink.com 1.10,2013-01-27 08:23:00,
2013-01-27 01:38:00,35.3,26.0,29.80,South,180,0.0,3.0,69,0.00,,,0.00,weatherlink.com 1.10,2013-01-27 08:38:00,
2013-01-27 01:53:00,35.5,26.0,29.79,South,183,0.0,3.0,68,0.00,,,0.00,weatherlink.com 1.10,2013-01-27 08:53:00,
2013-01-27 02:08:00,35.2,26.0,29.79,SW,214,0.0,1.0,68,0.00,,,0.00,weatherlink.com 1.10,2013-01-27 09:08:00,
2013-01-27 02:23:00,35.0,26.0,29.80,SSE,163,0.0,5.0,70,0.00,,,0.00,weatherlink.com 1.10,2013-01-27 09:23:00,
2013-01-27 02:38:00,34.7,25.0,29.80,South,184,0.0,3.0,69,0.00,,,0.00,weatherlink.com 1.10,2013-01-27 09:38:00,
2013-01-27 02:53:00,34.5,26.0,29.80,South,183,1.0,3.0,70,0.00,,,0.00,weatherlink.com 1.10,2013-01-27 09:53:00,
2013-01-27 03:08:00,33.9,25.0,29.80,WSW,238,1.0,3.0,71,0.00,,,0.00,weatherlink.com 1.10,2013-01-27 10:08:00,
2013-01-27 03:23:00,33.8,25.0,29.80,West,270,0.0,4.0,70,0.00,,,0.00,weatherlink.com 1.10,2013-01-27 10:23:00,
2013-01-27 03:38:00,33.7,25.0,29.80,SSE,163,1.0,6.0,69,0.00,,,0.00,weatherlink.com 1.10,2013-01-27 10:38:00,
2013-01-27 03:53:00,33.9,24.0,29.80,South,177,0.0,3.0,67,0.00,,,0.00,weatherlink.com 1.10,2013-01-27 10:53:00,
2013-01-27 04:08:00,33.9,24.0,29.80,WSW,241,4.0,6.0,67,0.00,,,0.00,weatherlink.com 1.10,2013-01-27 11:08:00,
2013-01-27 04:23:00,34.2,23.0,29.80,SSW,208,1.0,7.0,65,0.00,,,0.00,weatherlink.com 1.10,2013-01-27 11:23:00,
2013-01-27 04:38:00,33.7,23.0,29.80,SSW,208,0.0,4.0,65,0.00,,,0.00,weatherlink.com 1.10,2013-01-27 11:38:00,
2013-01-27 04:53:00,32.8,23.0,29.81,SSE,168,1.0,3.0,66,0.00,,,0.00,weatherlink.com 1.10,2013-01-27 11:53:00,
2013-01-27 05:08:00,32.5,22.0,29.81,SSE,163,2.0,5.0,66,0.00,,,0.00,weatherlink.com 1.10,2013-01-27 12:08:00,
2013-01-27 05:23:00,32.3,22.0,29.82,SW,225,0.0,3.0,65,0.00,,,0.00,weatherlink.com 1.10,2013-01-27 12:23:00,
2013-01-27 05:38:00,32.6,22.0,29.82,WSW,245,8.0,8.0,64,0.00,,,0.00,weatherlink.com 1.10,2013-01-27 12:38:00,
2013-01-27 05:53:00,32.6,22.0,29.82,SSE,155,4.0,7.0,64,0.00,,,0.00,weatherlink.com 1.10,2013-01-27 12:53:00,
2013-01-27 06:08:00,32.0,22.0,29.82,SSE,150,0.0,5.0,66,0.00,,,0.00,weatherlink.com 1.10,2013-01-27 13:08:00,
2013-01-27 06:23:00,32.1,21.0,29.83,South,181,2.0,2.0,64,0.00,,,0.00,weatherlink.com 1.10,2013-01-27 13:23:00,
2013-01-27 06:38:00,32.3,21.0,29.83,SSE,165,3.0,5.0,64,0.00,,,0.00,weatherlink.com 1.10,2013-01-27 13:38:00,
2013-01-27 06:53:00,32.4,21.0,29.83,SSE,167,1.0,8.0,62,0.00,,,0.00,weatherlink.com 1.10,2013-01-27 13:53:00,
2013-01-27 07:08:00,32.0,20.0,29.83,South,181,0.0,4.0,62,0.00,,,0.00,weatherlink.com 1.10,2013-01-27 14:08:00,
2013-01-27 07:23:00,30.9,20.0,29.84,South,180,0.0,1.0,64,0.00,,,0.00,weatherlink.com 1.10,2013-01-27 14:23:00,
2013-01-27 07:38:00,30.5,20.0,29.84,South,177,0.0,0.0,64,0.00,,,0.00,weatherlink.com 1.10,2013-01-27 14:38:00,
2013-01-27 07:53:00,30.9,20.0,29.85,South,171,4.0,6.0,65,0.00,,,0.00,weatherlink.com 1.10,2013-01-27 14:53:00,
2013-01-27 08:08:00,31.7,18.0,29.85,SW,234,3.0,9.0,58,0.00,,,0.00,weatherlink.com 1.10,2013-01-27 15:08:00,
2013-01-27 08:23:00,31.7,18.0,29.85,WSW,240,6.0,9.0,58,0.00,,,0.00,weatherlink.com 1.10,2013-01-27 15:23:00,
2013-01-27 08:38:00,32.0,19.0,29.85,South,181,0.0,9.0,58,0.00,,,0.00,weatherlink.com 1.10,2013-01-27 15:38:00,
2013-01-27 08:53:00,31.3,19.0,29.85,South,173,0.0,4.0,60,0.00,,,0.00,weatherlink.com 1.10,2013-01-27 15:53:00,
2013-01-27 09:08:00,30.9,20.0,29.85,SE,145,3.0,8.0,63,0.00,,,0.00,weatherlink.com 1.10,2013-01-27 16:08:00,
2013-01-27 09:23:00,31.6,19.0,29.86,SSE,158,2.0,9.0,60,0.00,,,0.00,weatherlink.com 1.10,2013-01-27 16:23:00,
2013-01-27 09:38:00,32.3,19.0,29.86,SSE,163,0.0,7.0,58,0.00,,,0.00,weatherlink.com 1.10,2013-01-27 16:38:00,
2013-01-27 09:53:00,33.3,21.0,29.86,SSE,150,7.0,9.0,60,0.00,,,0.00,weatherlink.com 1.10,2013-01-27 16:53:00,
2013-01-27 10:08:00,33.2,20.0,29.86,SSE,159,7.0,11.0,59,0.00,,,0.00,weatherlink.com 1.10,2013-01-27 17:08:00,
2013-01-27 10:24:00,33.7,20.0,29.86,SSE,161,0.0,11.0,58,0.00,,,0.00,weatherlink.com 1.10,2013-01-27 17:24:00,
2013-01-27 10:39:00,35.1,19.0,29.87,SSE,159,3.0,13.0,53,0.00,,,0.00,weatherlink.com 1.10,2013-01-27 17:39:00,
2013-01-27 10:54:00,36.0,20.0,29.86,SSE,159,8.0,12.0,52,0.00,,,0.00,weatherlink.com 1.10,2013-01-27 17:54:00,
2013-01-27 11:09:00,36.1,20.0,29.86,SSE,160,4.0,12.0,52,0.00,,,0.00,weatherlink.com 1.10,2013-01-27 18:09:00,
2013-01-27 11:24:00,37.7,20.0,29.85,SE,138,2.0,13.0,50,0.00,,,0.00,weatherlink.com 1.10,2013-01-27 18:24:00,
2013-01-27 11:39:00,38.6,19.0,29.85,SW,236,0.0,10.0,46,0.00,,,0.00,weatherlink.com 1.10,2013-01-27 18:39:00,
2013-01-27 11:54:00,40.1,20.0,29.84,WSW,250,2.0,7.0,44,0.00,,,0.00,weatherlink.com 1.10,2013-01-27 18:54:00,
2013-01-27 12:09:00,40.2,19.0,29.84,SSE,147,3.0,6.0,43,0.00,,,0.00,weatherlink.com 1.10,2013-01-27 19:09:00,
2013-01-27 12:24:00,40.1,16.0,29.84,ESE,115,0.0,6.0,38,0.00,,,0.00,weatherlink.com 1.10,2013-01-27 19:24:00,
2013-01-27 12:39:00,38.8,17.0,29.84,SW,219,0.0,9.0,42,0.00,,,0.00,weatherlink.com 1.10,2013-01-27 19:39:00,
2013-01-27 12:54:00,38.0,17.0,29.83,SSE,150,8.0,11.0,42,0.00,,,0.00,weatherlink.com 1.10,2013-01-27 19:54:00,
2013-01-27 13:09:00,38.0,18.0,29.83,SSE,156,3.0,10.0,44,0.00,,,0.00,weatherlink.com 1.10,2013-01-27 20:09:00,
2013-01-27 13:24:00,39.3,17.0,29.82,WSW,241,2.0,6.0,40,0.00,,,0.00,weatherlink.com 1.10,2013-01-27 20:24:00,
2013-01-27 13:39:00,40.6,17.0,29.82,South,172,2.0,5.0,38,0.00,,,0.00,weatherlink.com 1.10,2013-01-27 20:39:00,
2013-01-27 13:54:00,39.2,17.0,29.81,South,188,0.0,2.0,40,0.00,,,0.00,weatherlink.com 1.10,2013-01-27 20:54:00,
2013-01-27 14:09:00,38.9,15.0,29.81,West,281,0.0,6.0,38,0.00,,,0.00,weatherlink.com 1.10,2013-01-27 21:09:00,
2013-01-27 14:24:00,38.5,14.0,29.80,ENE,64,0.0,4.0,37,0.00,,,0.00,weatherlink.com 1.10,2013-01-27 21:24:00,
2013-01-27 14:39:00,37.9,16.0,29.81,WNW,291,3.0,5.0,41,0.00,,,0.00,weatherlink.com 1.10,2013-01-27 21:39:00,
2013-01-27 14:54:00,37.8,17.0,29.82,SSE,148,4.0,5.0,43,0.00,,,0.00,weatherlink.com 1.10,2013-01-27 21:54:00,
2013-01-27 15:09:00,38.2,16.0,29.82,SSE,148,1.0,5.0,40,0.00,,,0.00,weatherlink.com 1.10,2013-01-27 22:09:00,
2013-01-27 15:24:00,38.7,16.0,29.82,SE,134,1.0,4.0,40,0.00,,,0.00,weatherlink.com 1.10,2013-01-27 22:24:00,
2013-01-27 15:39:00,39.5,16.0,29.80,South,172,0.0,3.0,39,0.00,,,0.00,weatherlink.com 1.10,2013-01-27 22:39:00,
2013-01-27 15:54:00,38.4,15.0,29.81,WNW,286,1.0,6.0,39,0.00,,,0.00,weatherlink.com 1.10,2013-01-27 22:54:00,
2013-01-27 16:09:00,37.9,17.0,29.82,WSW,246,5.0,8.0,42,0.00,,,0.00,weatherlink.com 1.10,2013-01-27 23:09:00,
2013-01-27 16:24:00,37.3,16.0,29.84,West,261,1.0,6.0,42,0.00,,,0.00,weatherlink.com 1.10,2013-01-27 23:24:00,
2013-01-27 16:39:00,37.5,16.0,29.84,WSW,248,9.0,9.0,41,0.00,,,0.00,weatherlink.com 1.10,2013-01-27 23:39:00,
2013-01-27 16:54:00,36.1,15.0,29.84,West,260,8.0,12.0,43,0.00,,,0.00,weatherlink.com 1.10,2013-01-27 23:54:00,
2013-01-27 17:09:00,35.2,16.0,29.84,West,270,7.0,12.0,45,0.00,,,0.00,weatherlink.com 1.10,2013-01-28 00:09:00,
2013-01-27 17:24:00,34.5,16.0,29.85,West,263,5.0,8.0,46,0.00,,,0.00,weatherlink.com 1.10,2013-01-28 00:24:00,
2013-01-27 17:39:00,33.8,15.0,29.86,WSW,251,0.0,7.0,47,0.00,,,0.00,weatherlink.com 1.10,2013-01-28 00:39:00,
2013-01-27 17:54:00,32.6,16.0,29.86,WSW,253,3.0,5.0,50,0.00,,,0.00,weatherlink.com 1.10,2013-01-28 00:54:00,
2013-01-27 18:09:00,31.2,15.0,29.86,West,264,6.0,7.0,52,0.00,,,0.00,weatherlink.com 1.10,2013-01-28 01:09:00,
2013-01-27 18:24:00,31.8,15.0,29.86,WSW,242,0.0,6.0,51,0.00,,,0.00,weatherlink.com 1.10,2013-01-28 01:24:00,
2013-01-27 18:39:00,31.8,15.0,29.87,WSW,240,1.0,5.0,50,0.00,,,0.00,weatherlink.com 1.10,2013-01-28 01:39:00,
2013-01-27 18:54:00,31.5,16.0,29.87,WSW,250,0.0,4.0,52,0.00,,,0.00,weatherlink.com 1.10,2013-01-28 01:54:00,
2013-01-27 19:09:00,30.8,16.0,29.88,SSW,209,0.0,0.0,54,0.00,,,0.00,weatherlink.com 1.10,2013-01-28 02:09:00,
2013-01-27 19:24:00,30.2,16.0,29.87,SW,232,0.0,1.0,56,0.00,,,0.00,weatherlink.com 1.10,2013-01-28 02:24:00,
2013-01-27 19:39:00,30.3,15.0,29.88,WSW,242,0.0,0.0,54,0.00,,,0.00,weatherlink.com 1.10,2013-01-28 02:39:00,
2013-01-27 19:54:00,30.3,16.0,29.87,WSW,240,0.0,0.0,55,0.00,,,0.00,weatherlink.com 1.10,2013-01-28 02:54:00,
2013-01-27 20:09:00,30.4,16.0,29.88,SSE,163,0.0,3.0,55,0.00,,,0.00,weatherlink.com 1.10,2013-01-28 03:09:00,
2013-01-27 20:24:00,29.7,16.0,29.88,South,191,0.0,1.0,56,0.00,,,0.00,weatherlink.com 1.10,2013-01-28 03:24:00,
2013-01-27 20:39:00,29.2,16.0,29.88,South,188,0.0,2.0,57,0.00,,,0.00,weatherlink.com 1.10,2013-01-28 03:39:00,
2013-01-27 20:54:00,29.0,16.0,29.88,SSW,192,0.0,2.0,58,0.00,,,0.00,weatherlink.com 1.10,2013-01-28 03:54:00,
2013-01-27 21:09:00,29.3,16.0,29.88,South,183,0.0,7.0,59,0.00,,,0.00,weatherlink.com 1.10,2013-01-28 04:09:00,
2013-01-27 21:24:00,29.9,17.0,29.89,SSW,192,0.0,2.0,58,0.00,,,0.00,weatherlink.com 1.10,2013-01-28 04:24:00,
2013-01-27 21:39:00,29.8,17.0,29.89,SSW,206,0.0,0.0,58,0.00,,,0.00,weatherlink.com 1.10,2013-01-28 04:39:00,
2013-01-27 21:54:00,30.0,16.0,29.89,WSW,252,0.0,3.0,57,0.00,,,0.00,weatherlink.com 1.10,2013-01-28 04:54:00,
2013-01-27 22:09:00,29.9,16.0,29.88,SW,223,0.0,6.0,57,0.00,,,0.00,weatherlink.com 1.10,2013-01-28 05:09:00,
2013-01-27 22:24:00,29.7,17.0,29.89,SSE,164,0.0,6.0,60,0.00,,,0.00,weatherlink.com 1.10,2013-01-28 05:24:00,
2013-01-27 22:39:00,28.9,17.0,29.89,South,189,1.0,3.0,61,0.00,,,0.00,weatherlink.com 1.10,2013-01-28 05:39:00,
2013-01-27 22:54:00,28.8,17.0,29.89,South,183,1.0,4.0,61,0.00,,,0.00,weatherlink.com 1.10,2013-01-28 05:54:00,
2013-01-27 23:09:00,29.0,17.0,29.90,South,191,0.0,3.0,61,0.00,,,0.00,weatherlink.com 1.10,2013-01-28 06:09:00,
2013-01-27 23:24:00,28.8,17.0,29.90,SSW,204,0.0,4.0,61,0.00,,,0.00,weatherlink.com 1.10,2013-01-28 06:24:00,
2013-01-27 23:40:00,29.4,17.0,29.90,SSW,194,0.0,7.0,59,0.00,,,0.00,weatherlink.com 1.10,2013-01-28 06:40:00,
2013-01-27 23:55:00,29.6,17.0,29.90,WSW,237,0.0,6.0,59,0.00,,,0.00,weatherlink.com 1.10,2013-01-28 06:55:00,